Location: Clover
(42.5131°N, 114.6874°W)
Time: 13:52:22
(UTC+00:00)

Transit 2A Rocket - Pass Details

Date: 10 November 2024
Orbit: 585 x 904 km, 66.7° (Epoch: 02 December)

Event Time Altitude Azimuth Distance (km) Brightness Sun altitude
Rises 04:01:58 0° 308° (NW) 3,184 8.9 -40.6°
Reaches altitude 10° 04:06:35 10° 270° (W) 2,154 7.9 -41.5°
Enters shadow 04:07:07 10° 264° (W) 2,115 7.8 -41.6°
